SCP
0 0 0 0 0 0 0 0 0 0 0 0 0 0 0 0 0 0 0 0 0 0 0 0 0 0 0 0 0 0 0 0 0 0 0 0 0 0 0 0 0 0 0
0 0 0 0 0 0 0 0 1 1 0 0 0 0 0 0 0 0 0 0 0 0 0 0 0 0 0 0 0 0 0 0 0 0 0 0 0 0 0 0 0 0 0
1 0 0 0 0 1 0 1 1 1 1 0 0 0 0 0 0 0 0 0 0 0 0 0 0 0 0 0 0 0 0 0 0 0 0 0 0 0 0 0 0 0 0
1 1 0 0 1 1 0 1 0 1 0 0 0 0 0 0 0 0 0 0 0 0 0 0 0 0 0 0 0 0 0 0 0 0 0 0 0 0 0 0 0 0 0
0 0 0 0 1 0 1 1 0 1 1 0 0 0 0 0 0 0 0 0 0 0 0 0 0 0 0 0 0 0 0 0 0 0 0 0 0 0 0 0 0 0 0
0 0 0 2 2 2 1 1 1 1 0 0 0 0 0 0 0 0 0 0 0 0 0 0 0 0 0 0 0 0 0 0 0 0 0 0 0 0 0 0 0 0 0
0 0 2 2 2 1 1 1 1 1 0 0 0 0 0 0 0 0 0 0 0 0 0 0 0 0 0 0 0 0 0 0 0 0 0 0 0 0 0 0 0 0 0
0 1 2 1 1 1 2 1 1 0 1 0 0 0 0 0 0 0 0 0 0 0 0 0 0 0 0 0 0 0 0 0 0 0 0 0 0 0 0 0 0 0 0
0 1 1 2 1 1 1 1 1 1 0 0 0 0 0 0 0 0 0 0 0 0 0 0 0 0 0 0 0 0 0 0 0 0 0 0 0 0 0 0 0 0 0
1 1 1 2 1 1 1 1 1 1 1 0 0 0 0 0 0 0 0 0 0 0 0 0 0 0 0 0 0 0 0 0 0 0 0 0 0 0 0 0 0 0 0
1 1 1 3 2 1 1 1 1 1 0 0 0 0 0 0 0 0 0 0 0 0 0 0 0 0 0 0 0 0 0 0 0 0 0 0 0 0 0 0 0 0 0
2 1 2 4 3 2 1 1 1 0 0 0 0 0 0 0 0 0 0 0 0 0 0 0 0 0 0 0 0 0 0 0 0 0 0 0 0 0 0 0 0 0 -0
3 2 3 3 2 2 1 1 0 0 0 0 0 0 0 0 0 0 0 0 0 0 0 0 0 0 0 0 0 0 0 0 0 0 0 0 0 0 0 0 0 -0 0
2 3 3 2 2 1 1 0 0 0 0 0 0 0 0 0 0 0 0 0 0 0 0 0 0 0 0 0 0 0 0 0 0 0 0 0 0 0 0 0 0 0 -0
3 3 2 2 2 1 0 0 0 0 0 0 0 0 0 0 0 0 0 0 0 0 0 0 0 0 0 0 0 0 0 0 0 0 0 0 0 0 0 0 0 0 -0
3 3 2 1 0 0 0 0 0 0 0 0 0 0 0 0 0 0 0 0 0 0 0 0 0 0 0 0 0 0 0 0 0 0 0 0 0 0 -0 0 0 -0 -0
3 2 1 0 0 0 0 0 0 0 0 0 0 0 0 0 0 0 0 0 0 0 0 0 0 0 0 0 0 0 0 0 0 0 0 0 0 0 -0 0 0 -0 0
1 1 1 0 0 0 0 0 0 0 0 0 0 0 0 0 0 0 0 0 0 0 0 0 0 0 0 0 0 0 0 0 0 0 0 0 0 0 0 0 0 -0 0
2 1 0 0 0 0 0 0 0 0 0 0 0 0 0 0 0 0 0 0 0 0 0 0 0 0 0 0 0 0 0 0 0 0 0 0 0 0 0 0 0 0 -0
2 1 0 0 0 0 0 0 0 0 0 0 0 0 0 0 0 0 0 0 0 0 0 0 0 0 0 0 0 0 0 0 0 0 0 0 0 0 -0 -0 0 0 -0
1 0 0 0 0 0 0 0 0 0 0 0 0 0 0 0 0 0 0 0 0 0 0 0 0 0 0 0 0 0 0 0 0 0 0 0 0 0 -0 -0 0 0 0
0 0 0 0 0 0 0 0 0 0 0 0 0 0 0 0 0 0 0 0 0 0 0 0 0 0 0 0 0 0 0 0 0 0 0 0 0 0 0 -0 -0 -0 0
0 0 0 0 0 0 0 0 0 0 0 0 0 0 0 0 0 0 0 0 0 0 0 0 0 0 0 0 0 0 0 0 0 0 0 0 0 0 0 -0 -0 -0 -0
0 0 0 0 0 0 0 0 0 0 0 0 0 0 0 0 0 0 0 0 0 0 0 0 0 0 0 0 0 0 0 0 0 0 0 0 0 0 0 0 0 -0 -0
0 0 0 0 0 0 0 0 0 0 0 0 0 0 0 0 0 0 0 0 0 0 0 0 0 0 0 -0 0 0 0 0 0 0 0 0 0 0 0 0 0 0 0
0 0 0 0 0 0 0 0 0 0 0 0 0 0 0 0 0 0 0 0 0 0 0 0 0 -0 -0 -0 0 0 0 0 0 0 0 0 0 0 0 0 0 0 0
Wind_Speed_500mb
43 36 33 17 9 13 12 15 15 5 5 2 6 10 15 2 21 21 21 26 30 31 34 34 41 39 39 41 39 39 37 33 37 38 40 44 45 43 39 42 38 41 47
44 42 35 37 23 23 22 16 24 11 12 13 11 15 7 9 2 18 18 21 25 28 35 37 43 37 38 45 41 40 37 39 40 40 42 45 46 45 41 41 43 42 47
44 41 44 46 31 28 24 23 16 11 12 12 15 12 5 5 11 3 15 21 18 20 31 36 41 41 48 52 45 46 38 42 43 42 44 45 44 44 46 45 48 48 48
47 49 41 37 32 31 30 24 16 10 14 17 12 7 8 7 14 3 11 8 18 21 26 30 37 39 49 53 51 43 42 49 47 44 45 49 49 48 50 51 52 54 53
55 53 41 34 34 31 21 27 19 19 17 16 7 4 8 9 10 10 15 15 10 13 21 28 28 34 45 50 44 42 45 61 48 47 51 52 52 52 52 52 52 55 56
58 56 41 41 41 41 35 33 24 21 16 12 7 21 10 16 15 17 15 5 11 16 14 30 17 26 24 38 38 54 53 65 49 51 53 54 53 54 55 55 58 59 60
59 62 42 45 47 43 29 29 31 29 17 18 19 18 5 6 24 17 15 5 13 4 19 21 30 34 33 16 42 47 52 62 59 56 52 55 54 57 58 60 60 61 63
64 58 55 47 53 37 38 42 38 22 20 25 20 15 13 18 15 10 16 13 9 14 5 17 23 30 31 23 35 43 53 57 67 62 57 53 57 60 62 62 63 65 67
67 59 54 46 37 46 42 39 32 28 20 20 26 15 8 6 21 18 11 7 12 2 16 12 17 28 30 29 31 43 57 57 67 67 68 57 59 62 66 68 69 70 72
67 59 63 45 36 42 39 30 25 32 25 18 16 26 15 5 0 10 17 11 13 2 6 13 11 17 29 28 31 45 58 55 63 65 69 63 60 65 69 73 76 75 74
67 59 62 53 44 48 31 33 29 30 26 20 14 10 8 6 6 8 3 9 8 10 7 6 19 14 22 27 36 43 48 50 56 59 67 62 70 81 81 83 86 79 75
69 56 57 62 48 40 38 39 29 25 26 31 23 21 13 7 17 5 6 2 8 25 13 14 9 16 17 24 32 46 40 48 55 55 67 66 74 85 95 91 87 84 78
70 64 61 56 49 48 45 42 35 29 39 37 31 27 20 20 16 9 7 7 3 9 6 2 9 11 23 25 37 44 33 44 48 53 63 63 70 82 96 91 87 84 77
64 65 58 53 48 46 43 38 31 33 36 39 38 23 22 21 20 18 13 5 2 7 14 6 3 20 33 26 34 33 27 42 37 54 60 61 73 86 96 91 85 80 78
61 62 56 52 49 48 43 35 34 37 33 32 38 36 25 24 20 13 9 7 10 4 7 12 6 23 40 18 32 25 29 36 35 58 52 58 70 83 97 92 84 81 76
62 56 51 58 53 48 43 38 38 39 31 33 30 43 30 22 14 10 9 9 6 12 6 6 9 25 38 35 29 34 32 33 35 57 50 57 63 79 96 94 85 84 77
61 52 47 59 61 48 46 45 42 36 34 33 32 44 33 21 12 7 7 13 7 14 6 9 13 17 24 31 27 32 35 29 32 53 44 50 62 85 96 95 88 89 83
66 60 59 64 56 56 52 47 44 37 43 37 31 36 28 24 20 13 6 14 7 11 16 12 10 9 16 29 20 27 29 21 32 45 41 45 61 82 89 89 90 89 84
75 66 64 57 59 57 55 51 43 39 40 37 35 30 28 21 19 18 15 11 8 12 9 13 9 4 13 21 19 24 25 19 36 44 38 41 55 74 84 83 83 87 88
80 72 67 59 63 59 56 51 47 41 41 38 35 29 23 21 19 16 13 14 15 14 11 12 3 8 19 14 16 28 26 32 27 35 35 33 48 56 86 86 80 84 90
54 60 65 65 66 63 57 53 49 47 45 44 38 36 30 21 13 16 16 18 23 17 17 9 4 14 13 17 24 31 24 33 22 40 33 30 36 55 73 85 79 81 83
72 68 62 67 68 63 54 59 56 54 49 45 46 32 27 20 18 21 15 14 14 20 24 15 11 5 12 18 23 30 30 42 24 42 25 37 41 48 60 77 80 84 78
86 74 75 73 73 60 59 63 58 52 51 46 36 29 25 22 19 19 16 15 17 14 13 7 7 11 16 24 26 29 37 18 28 43 21 38 48 36 51 67 76 88 87
95 100 87 81 74 66 64 64 54 52 50 42 34 32 23 23 25 21 19 18 17 14 15 13 13 20 23 19 20 23 23 21 28 36 32 39 43 25 50 61 70 77 82
110 98 93 86 78 75 65 63 57 56 50 44 42 35 29 23 26 26 23 16 22 22 18 17 22 23 31 28 22 20 22 20 31 35 28 44 36 35 40 54 63 61 75
113 104 99 94 80 72 63 61 59 58 52 46 38 34 29 26 35 35 30 16 20 16 17 23 29 27 25 26 30 25 32 30 31 31 30 38 25 41 25 48 55 50 63
Wind_Direction_500mb
210 198 211 231 197 177 181 204 235 248 190 154 200 205 218 260 322 324 337 348 356 3 4 3 2 5 9 4 357 2 8 359 0 357 354 351 350 349 347 340 341 335 326
210 191 196 198 213 192 206 200 206 204 158 185 214 249 237 139 78 341 340 350 352 358 355 357 360 6 7 5 358 5 7 359 360 359 353 346 347 345 345 340 337 334 330
209 200 203 197 203 194 193 211 211 207 224 236 274 276 193 204 241 208 343 345 353 353 351 346 357 2 1 3 0 9 9 358 3 1 349 342 346 346 343 340 335 334 331
204 203 201 190 201 203 207 208 220 213 205 257 263 229 193 234 255 192 209 325 352 353 344 342 354 360 354 357 358 9 2 3 360 356 345 348 351 351 346 340 337 334 331
203 200 188 198 199 198 193 207 195 223 230 244 244 222 185 231 292 214 243 308 326 340 339 317 356 359 358 350 354 1 359 357 2 358 355 354 355 353 349 342 337 336 335
202 190 181 208 204 195 206 209 188 213 218 237 222 175 211 197 241 243 284 23 315 346 284 321 352 341 345 344 346 338 352 350 1 1 357 360 357 354 347 344 344 341 337
200 190 185 206 211 205 205 192 205 212 201 198 206 249 294 250 223 199 272 205 239 338 328 315 326 352 347 23 328 338 343 355 5 5 2 2 360 353 350 350 348 345 342
197 193 189 214 213 188 204 202 213 214 198 219 190 224 219 229 244 197 204 252 294 337 260 326 334 344 339 12 334 327 341 357 7 6 6 6 1 358 356 354 349 348 344
193 197 184 209 211 191 209 219 221 196 200 234 193 181 245 86 205 224 232 222 256 276 270 333 313 342 335 352 327 326 342 1 8 8 7 10 6 3 359 354 352 349 348
191 196 187 197 206 196 212 221 230 203 188 226 221 201 220 230 335 172 234 266 296 322 347 19 316 355 337 343 332 329 344 4 7 8 8 6 8 6 3 1 358 353 350
189 194 188 194 200 200 213 213 216 205 195 193 225 199 217 246 290 222 252 243 267 167 122 319 341 332 342 335 329 337 353 2 2 1 5 6 5 8 6 2 359 356 354
183 189 187 199 202 207 206 215 214 206 192 189 194 197 189 197 234 219 265 6 16 183 276 338 336 316 348 331 323 337 357 358 356 358 8 10 9 9 5 359 2 0 1
182 181 187 196 202 203 206 219 218 213 199 199 194 199 198 213 203 203 208 263 273 249 138 48 339 314 326 324 331 345 354 353 349 2 12 7 11 10 1 360 4 4 3
183 189 185 197 201 207 212 214 214 216 207 212 199 174 190 198 181 203 203 186 134 68 164 106 264 304 340 330 337 349 358 353 352 4 9 4 12 10 4 3 6 8 8
187 192 189 195 206 209 210 210 211 211 207 205 195 177 186 198 192 201 175 168 145 3 65 82 351 330 336 360 335 25 6 358 0 9 4 1 11 9 3 5 9 12 10
191 189 192 205 215 208 208 200 205 209 205 201 189 179 192 200 188 192 172 139 135 147 88 59 2 344 344 359 5 25 15 16 8 6 356 359 3 8 6 11 12 16 12
204 206 202 219 211 207 202 197 205 204 196 187 186 183 194 175 165 181 157 123 201 162 118 75 7 358 352 348 20 22 28 18 353 359 352 357 8 7 11 13 15 18 16
203 203 205 211 211 204 193 199 201 198 190 190 183 188 185 191 183 172 209 192 211 134 127 69 32 4 345 342 28 25 18 21 357 360 354 360 13 6 11 15 18 18 19
200 202 206 210 203 200 198 198 198 192 192 183 185 185 182 175 173 169 174 118 95 94 85 98 47 348 321 352 34 41 30 12 8 14 357 355 8 1 12 16 20 20 21
196 201 209 212 198 198 195 192 190 190 182 179 180 181 174 183 185 177 177 174 164 111 55 80 113 303 320 7 51 34 39 7 5 25 10 1 360 9 20 22 25 24 22
198 205 206 199 193 195 192 182 188 185 178 178 175 180 186 185 178 177 164 173 154 139 157 133 166 288 354 25 51 34 51 24 340 8 41 12 357 8 19 24 22 27 25
206 214 207 197 192 188 187 184 190 186 183 178 181 178 181 180 187 186 180 194 190 178 166 163 218 331 21 40 70 55 34 8 21 10 46 20 1 5 17 23 19 20 27
204 205 199 192 191 179 182 185 189 187 178 181 182 170 175 173 173 174 168 166 162 155 153 162 102 72 55 63 69 56 35 50 27 24 57 31 3 6 12 22 18 16 19
207 207 197 194 188 181 186 190 187 179 176 176 167 161 173 169 155 146 148 148 141 126 104 94 85 76 57 62 66 57 47 63 12 19 43 36 16 356 19 29 20 14 16
201 202 194 191 184 180 188 193 182 177 176 165 167 176 186 183 161 144 166 169 137 121 100 87 75 70 48 42 57 79 66 59 33 17 50 33 17 29 32 33 24 14 12
205 193 182 189 187 184 185 189 178 178 171 172 175 180 186 182 174 165 168 176 141 122 97 74 62 57 48 21 40 62 56 66 39 34 46 33 21 34 31 15 14 26 14
Wind_Speed_850mb
43 36 33 17 9 13 12 15 15 5 5 2 6 10 15 2 21 21 21 26 30 31 34 34 41 39 39 41 39 39 37 33 37 38 40 44 45 43 39 42 38 41 47
44 42 35 37 23 23 22 16 24 11 12 13 11 15 7 9 2 18 18 21 25 28 35 37 43 37 38 45 41 40 37 39 40 40 42 45 46 45 41 41 43 42 47
44 41 44 46 31 28 24 23 16 11 12 12 15 12 5 5 11 3 15 21 18 20 31 36 41 41 48 52 45 46 38 42 43 42 44 45 44 44 46 45 48 48 48
47 49 41 37 32 31 30 24 16 10 14 17 12 7 8 7 14 3 11 8 18 21 26 30 37 39 49 53 51 43 42 49 47 44 45 49 49 48 50 51 52 54 53
55 53 41 34 34 31 21 27 19 19 17 16 7 4 8 9 10 10 15 15 10 13 21 28 28 34 45 50 44 42 45 61 48 47 51 52 52 52 52 52 52 55 56
58 56 41 41 41 41 35 33 24 21 16 12 7 21 10 16 15 17 15 5 11 16 14 30 17 26 24 38 38 54 53 65 49 51 53 54 53 54 55 55 58 59 60
59 62 42 45 47 43 29 29 31 29 17 18 19 18 5 6 24 17 15 5 13 4 19 21 30 34 33 16 42 47 52 62 59 56 52 55 54 57 58 60 60 61 63
64 58 55 47 53 37 38 42 38 22 20 25 20 15 13 18 15 10 16 13 9 14 5 17 23 30 31 23 35 43 53 57 67 62 57 53 57 60 62 62 63 65 67
67 59 54 46 37 46 42 39 32 28 20 20 26 15 8 6 21 18 11 7 12 2 16 12 17 28 30 29 31 43 57 57 67 67 68 57 59 62 66 68 69 70 72
67 59 63 45 36 42 39 30 25 32 25 18 16 26 15 5 0 10 17 11 13 2 6 13 11 17 29 28 31 45 58 55 63 65 69 63 60 65 69 73 76 75 74
67 59 62 53 44 48 31 33 29 30 26 20 14 10 8 6 6 8 3 9 8 10 7 6 19 14 22 27 36 43 48 50 56 59 67 62 70 81 81 83 86 79 75
69 56 57 62 48 40 38 39 29 25 26 31 23 21 13 7 17 5 6 2 8 25 13 14 9 16 17 24 32 46 40 48 55 55 67 66 74 85 95 91 87 84 78
70 64 61 56 49 48 45 42 35 29 39 37 31 27 20 20 16 9 7 7 3 9 6 2 9 11 23 25 37 44 33 44 48 53 63 63 70 82 96 91 87 84 77
64 65 58 53 48 46 43 38 31 33 36 39 38 23 22 21 20 18 13 5 2 7 14 6 3 20 33 26 34 33 27 42 37 54 60 61 73 86 96 91 85 80 78
61 62 56 52 49 48 43 35 34 37 33 32 38 36 25 24 20 13 9 7 10 4 7 12 6 23 40 18 32 25 29 36 35 58 52 58 70 83 97 92 84 81 76
62 56 51 58 53 48 43 38 38 39 31 33 30 43 30 22 14 10 9 9 6 12 6 6 9 25 38 35 29 34 32 33 35 57 50 57 63 79 96 94 85 84 77
61 52 47 59 61 48 46 45 42 36 34 33 32 44 33 21 12 7 7 13 7 14 6 9 13 17 24 31 27 32 35 29 32 53 44 50 62 85 96 95 88 89 83
66 60 59 64 56 56 52 47 44 37 43 37 31 36 28 24 20 13 6 14 7 11 16 12 10 9 16 29 20 27 29 21 32 45 41 45 61 82 89 89 90 89 84
75 66 64 57 59 57 55 51 43 39 40 37 35 30 28 21 19 18 15 11 8 12 9 13 9 4 13 21 19 24 25 19 36 44 38 41 55 74 84 83 83 87 88
80 72 67 59 63 59 56 51 47 41 41 38 35 29 23 21 19 16 13 14 15 14 11 12 3 8 19 14 16 28 26 32 27 35 35 33 48 56 86 86 80 84 90
54 60 65 65 66 63 57 53 49 47 45 44 38 36 30 21 13 16 16 18 23 17 17 9 4 14 13 17 24 31 24 33 22 40 33 30 36 55 73 85 79 81 83
72 68 62 67 68 63 54 59 56 54 49 45 46 32 27 20 18 21 15 14 14 20 24 15 11 5 12 18 23 30 30 42 24 42 25 37 41 48 60 77 80 84 78
86 74 75 73 73 60 59 63 58 52 51 46 36 29 25 22 19 19 16 15 17 14 13 7 7 11 16 24 26 29 37 18 28 43 21 38 48 36 51 67 76 88 87
95 100 87 81 74 66 64 64 54 52 50 42 34 32 23 23 25 21 19 18 17 14 15 13 13 20 23 19 20 23 23 21 28 36 32 39 43 25 50 61 70 77 82
110 98 93 86 78 75 65 63 57 56 50 44 42 35 29 23 26 26 23 16 22 22 18 17 22 23 31 28 22 20 22 20 31 35 28 44 36 35 40 54 63 61 75
113 104 99 94 80 72 63 61 59 58 52 46 38 34 29 26 35 35 30 16 20 16 17 23 29 27 25 26 30 25 32 30 31 31 30 38 25 41 25 48 55 50 63
Wind_Direction_850mb
210 198 211 231 197 177 181 204 235 248 190 154 200 205 218 260 322 324 337 348 356 3 4 3 2 5 9 4 357 2 8 359 0 357 354 351 350 349 347 340 341 335 326
210 191 196 198 213 192 206 200 206 204 158 185 214 249 237 139 78 341 340 350 352 358 355 357 360 6 7 5 358 5 7 359 360 359 353 346 347 345 345 340 337 334 330
209 200 203 197 203 194 193 211 211 207 224 236 274 276 193 204 241 208 343 345 353 353 351 346 357 2 1 3 0 9 9 358 3 1 349 342 346 346 343 340 335 334 331
204 203 201 190 201 203 207 208 220 213 205 257 263 229 193 234 255 192 209 325 352 353 344 342 354 360 354 357 358 9 2 3 360 356 345 348 351 351 346 340 337 334 331
203 200 188 198 199 198 193 207 195 223 230 244 244 222 185 231 292 214 243 308 326 340 339 317 356 359 358 350 354 1 359 357 2 358 355 354 355 353 349 342 337 336 335
202 190 181 208 204 195 206 209 188 213 218 237 222 175 211 197 241 243 284 23 315 346 284 321 352 341 345 344 346 338 352 350 1 1 357 360 357 354 347 344 344 341 337
200 190 185 206 211 205 205 192 205 212 201 198 206 249 294 250 223 199 272 205 239 338 328 315 326 352 347 23 328 338 343 355 5 5 2 2 360 353 350 350 348 345 342
197 193 189 214 213 188 204 202 213 214 198 219 190 224 219 229 244 197 204 252 294 337 260 326 334 344 339 12 334 327 341 357 7 6 6 6 1 358 356 354 349 348 344
193 197 184 209 211 191 209 219 221 196 200 234 193 181 245 86 205 224 232 222 256 276 270 333 313 342 335 352 327 326 342 1 8 8 7 10 6 3 359 354 352 349 348
191 196 187 197 206 196 212 221 230 203 188 226 221 201 220 230 335 172 234 266 296 322 347 19 316 355 337 343 332 329 344 4 7 8 8 6 8 6 3 1 358 353 350
189 194 188 194 200 200 213 213 216 205 195 193 225 199 217 246 290 222 252 243 267 167 122 319 341 332 342 335 329 337 353 2 2 1 5 6 5 8 6 2 359 356 354
183 189 187 199 202 207 206 215 214 206 192 189 194 197 189 197 234 219 265 6 16 183 276 338 336 316 348 331 323 337 357 358 356 358 8 10 9 9 5 359 2 0 1
182 181 187 196 202 203 206 219 218 213 199 199 194 199 198 213 203 203 208 263 273 249 138 48 339 314 326 324 331 345 354 353 349 2 12 7 11 10 1 360 4 4 3
183 189 185 197 201 207 212 214 214 216 207 212 199 174 190 198 181 203 203 186 134 68 164 106 264 304 340 330 337 349 358 353 352 4 9 4 12 10 4 3 6 8 8
187 192 189 195 206 209 210 210 211 211 207 205 195 177 186 198 192 201 175 168 145 3 65 82 351 330 336 360 335 25 6 358 0 9 4 1 11 9 3 5 9 12 10
191 189 192 205 215 208 208 200 205 209 205 201 189 179 192 200 188 192 172 139 135 147 88 59 2 344 344 359 5 25 15 16 8 6 356 359 3 8 6 11 12 16 12
204 206 202 219 211 207 202 197 205 204 196 187 186 183 194 175 165 181 157 123 201 162 118 75 7 358 352 348 20 22 28 18 353 359 352 357 8 7 11 13 15 18 16
203 203 205 211 211 204 193 199 201 198 190 190 183 188 185 191 183 172 209 192 211 134 127 69 32 4 345 342 28 25 18 21 357 360 354 360 13 6 11 15 18 18 19
200 202 206 210 203 200 198 198 198 192 192 183 185 185 182 175 173 169 174 118 95 94 85 98 47 348 321 352 34 41 30 12 8 14 357 355 8 1 12 16 20 20 21
196 201 209 212 198 198 195 192 190 190 182 179 180 181 174 183 185 177 177 174 164 111 55 80 113 303 320 7 51 34 39 7 5 25 10 1 360 9 20 22 25 24 22
198 205 206 199 193 195 192 182 188 185 178 178 175 180 186 185 178 177 164 173 154 139 157 133 166 288 354 25 51 34 51 24 340 8 41 12 357 8 19 24 22 27 25
206 214 207 197 192 188 187 184 190 186 183 178 181 178 181 180 187 186 180 194 190 178 166 163 218 331 21 40 70 55 34 8 21 10 46 20 1 5 17 23 19 20 27
204 205 199 192 191 179 182 185 189 187 178 181 182 170 175 173 173 174 168 166 162 155 153 162 102 72 55 63 69 56 35 50 27 24 57 31 3 6 12 22 18 16 19
207 207 197 194 188 181 186 190 187 179 176 176 167 161 173 169 155 146 148 148 141 126 104 94 85 76 57 62 66 57 47 63 12 19 43 36 16 356 19 29 20 14 16
201 202 194 191 184 180 188 193 182 177 176 165 167 176 186 183 161 144 166 169 137 121 100 87 75 70 48 42 57 79 66 59 33 17 50 33 17 29 32 33 24 14 12
205 193 182 189 187 184 185 189 178 178 171 172 175 180 186 182 174 165 168 176 141 122 97 74 62 57 48 21 40 62 56 66 39 34 46 33 21 34 31 15 14 26 14